PEGASUS DEB, 24340

Orbit data source: Space-Track

PEGASUS DEB, 24340 is space debris in LEO originally from a launch on Thu, 19 May 1994 UTC launched from the Air Force Western Test Range (AFWTR). Debris objects in space refer to the collection of defunct objects orbiting the Earth. Examples of debris include non-operational satellites, rocket bodies, and fragments generated from explosions, collisions, or faulty payload assembly.

Loading next visibility...
Identifier
24340, 1994-029NR
Orbit
LEO
Country
Flag of USUS
Related business
Manufacturer
Unknown
Mission
Spacecraft
Bus & Motor
Unknown
Mass
Unknown
Launch date (UTC)
1994-05-19 (32 years ago)
Launch vehicle
Unknown
Launch site
Air Force Western Test Range (AFWTR)
Object type
Payload
Rocket body
Debris
Shape & HBR
Unknown shape, 0.1 m
Radar Cross Section
Small (<0.1 m²)

Expand to show TLE details & history
Last TLE update: 12 hours ago

TLE from 12 hours ago
0 PEGASUS DEB
1 24340U 94029NR  26063.27388459  .00014423  00000-0  60010-2 0  9993
2 24340  81.5958  25.3680 0834816  25.4856 338.5077 13.15599146511739
Epoch: 2026-03-04T06:34Z
TLE epoch observation values (Epoch: 2026-03-04T06:34:23.628Z)
Latitude
-0.0001°
Longitude
124.72859°
Altitude
623.488 km
Speed
7.831 km/s
True Right ascension
01h 41m 28s
True Declination
0° 00' 00"
Sunlit
Object was in daylight at epoch
Visualization orbit readout
Latitude
Unknown
Longitude
Unknown
Altitude
Unknown
Speed
Unknown
Apparent Right ascension
Unknown
Apparent Declination
Unknown
Sunlit
N/A
Visualization observer readout
Local Sidereal Time
22:47:03
Azimuth
Unknown
Elevation
Unknown
Doppler factor
Unknown
Orbital elements
Apogee altitude
1,831.372 km
Perigee altitude
566.296 km
Semi-major axis
7,576.971 km
Eccentricity
0.08348
Inclination
81.5958°
RAAN
25.368°
Arg. of periapsis
25.4856°
True anomaly
334.63077°
Mean anomaly
338.5077°
Eccentric anomaly
336.60876°
Mean motion
3.29079 °/min
Orbital period
109.4 mins
BSTAR
0.006001
Loading maneuver chart data...
Computing Atmospheric mass density...

Documentation

Showing up to 5 results
|